Regional Weather Roundup
Issued by NWS

Home | Current Version | Previous Version | Text Only | Print | Product List | Glossary On
Versions: 1 2 3 4 5 6 7 8 9 10 11 12 13 14 15 16 17 18 19 20 21 22 23 24 25 26 27 28 29 30 31 32 33 34 35 36 37 38 39 40 41 42 43 44 45 46 47 48 49 50
050
ASUS45 KBOU 010407
RWRCO

WEATHER ROUNDUP FOR COLORADO
NATIONAL WEATHER SERVICE DENVER/BOULDER CO
900 PM MST TUE FEB 28 2017

NOTE: "FAIR" INDICATES FEW OR NO CLOUDS BELOW 12000 FEET WITH NO
SIGNIFICANT WEATHER AND/OR OBSTRUCTIONS TO VISIBILITY.

COZ001>005-013-030-031-010500-
...NORTHWEST COLORADO...

CITY           SKY/WX    TMP DP  RH WIND       PRES   REMARKS
CRAIG          MOCLDY    11   6  81 CALM      30.06R
HAYDEN         CLOUDY    14   9  79 CALM      30.03R
MEEKER         FAIR      19  15  84 N3        30.07R
MOUNT WERNER   NOT AVBL
STEAMBOAT SPGS CLOUDY    15  10  79 S3        30.02R
WALDEN         NOT AVBL
$$

COZ006>008-011-010500-
...WEST CENTRAL VALLEYS...

CITY           SKY/WX    TMP DP  RH WIND       PRES   REMARKS
GRAND JUNCTION FAIR      27  15  61 W6        30.10R WCI  20
MONTROSE       MOCLDY    27  17  66 SW8       30.12R WCI  19
EAGLE          CLEAR     16   7  67 CALM      30.07R
RIFLE          FAIR      27  17  66 NW10      30.09R WCI  17
DELTA          FAIR      31  17  55 W3        30.11R
NUCLA          FAIR      30   9  40 W5        30.14R WCI  25
$$

COZ017>023-064>068-010500-
...SOUTHWEST COLORADO...

CITY           SKY/WX    TMP DP  RH WIND       PRES   REMARKS
DURANGO        FAIR      27  19  72 W14       30.02R WCI  16
CORTEZ         CLOUDY    27  20  75 CALM      30.10R
PAGOSA SPRINGS FAIR      25  22  89 SW12      29.99R WCI  14
TELLURIDE      CLOUDY    18   7  60 NW5       30.05R WCI  11
WOLF CREEK PAS CLOUDY     9   9 100 SW12G21   29.95R WCI  -6
$$

COZ009-010-012-014-032>034-037-058>063-010500-
...CENTRAL COLORADO...

CITY           SKY/WX    TMP DP  RH WIND       PRES   REMARKS
ASPEN          CLOUDY    15  11  83 CALM      30.00R
BUENA VISTA    CLOUDY    20   9  62 NW7       29.95R WCI  11
COPPER MTN     CLOUDY     5  -4  66 MISG      29.81R
BERTHOUD PASS  SNOW      -6 -15  65 NW35G49   29.71R VSB 1/2 WCI -35
COTTONWOOD PAS LGT SNOW  18   7  62 NW9G18    29.89R WCI   6
GUNNISON       FAIR      20  10  65 W7        30.01R WCI  11
KREMMLING      FAIR      19   7  58 W7        30.00R WCI  10
LEADVILLE      LGT SNOW   7   0  73 NW16G25   29.90R WCI -11
MONARCH PASS   FAIR       3   0  85 W28G47    29.93R WCI -21
SALIDA         FAIR      26   0  32 W13G23    30.02R WCI  15
SUNLIGHT       NOT AVBL
WILKERSON PASS FAIR       5   0  78 W13G20    29.84R WCI -12
$$

COZ069>075-010500-
...SAN LUIS VALLEY/SANGRE DE CRISTO MOUNTAINS...

CITY           SKY/WX    TMP DP  RH WIND       PRES   REMARKS
ALAMOSA        LGT SNOW  24  19  81 N15       29.97R WCI  11
LA VETA PASS   LGT SNOW  16  12  86 W8G17     29.89R VSB 1   WCI   5
SAGUACHE       FAIR      23   9  54 NW16G26   29.97R WCI  10
$$

COZ035-036-038>040-010500-
...NORTHERN COLORADO FRONT RANGE...

CITY           SKY/WX    TMP DP  RH WIND       PRES   REMARKS
DENVER INTL AP FAIR      22  10  60 W14       29.95R WCI   9
DMNS CITY PARK   N/A     28  -1  27 W7G14     29.98R WCI  21
AURORA         PTCLDY    25   3  38 W15       29.97R WCI  13
FRONT RANGE AP NOT AVBL
ERIE MUNI ARPT FAIR      27   1  33 W9        29.97R WCI  17
BOULDER MUN AP FAIR      30  -2  24 W10       29.96R WCI  21
CENTENNIAL     FAIR      27   1  32 NW23G32   29.94R WCI  12
BROOMFIELD     PTCLDY    25   0  33 W6        29.96R WCI  18
FORT COLLINS   FAIR      27   6  41 NW15      29.96R WCI  15
LONGMONT       NOT AVBL
$$

COZ041-046-047-076>085-087-088-010500-
...PIKES PEAK/PALMER DIVIDE AND SOUTHERN FOOTHILLS...

CITY           SKY/WX    TMP DP  RH WIND       PRES   REMARKS
COLO. SPRINGS  FLURRIES  24  16  71 NE12      29.93R WCI  13
A. F. ACADEMY  FAIR      23  14  70 N10       29.92R WCI  12
SCHRIEVER AFB  FLURRIES  24  16  70 N14G21    29.94  WCI  12
ELLICOTT       LGT SNOW N/A N/A N/A N10       29.92R
FALCON         CLOUDY    22  11  62 NW12G18   29.92R WCI  11
FORT CARSON    FAIR      26  17  69 N9        29.93R WCI  16
LIMON          MOCLDY    19  18  95 W8        29.94R WCI   9
MONUMENT HILL  FAIR      14   3  62 NW9       29.93R WCI   2
TRINIDAD       FAIR      33  22  63 NW18      29.90R WCI  22
$$

COZ042>045-048>051-090-091-010500-
...NORTHEAST COLORADO...

CITY           SKY/WX    TMP DP  RH WIND       PRES   REMARKS
GREELEY ARPT   FAIR      26  11  52 W10       29.97R WCI  16
AKRON            N/A     24  17  74 W15       29.91R WCI  11
BURLINGTON     CLOUDY    29  23  78 NW10      29.93R WCI  20
WRAY           NOT AVBL
STERLING       FAIR      30  14  51 NW17      29.91R WCI  18
HOLYOKE        FAIR      34  14  44 NW13G20   29.90R WCI  25
FORT MORGAN    FAIR      22  13  69 W10       29.94R WCI  11
$$

COZ086-089-092>099-010500-
...SOUTHEAST COLORADO...

CITY           SKY/WX    TMP DP  RH WIND       PRES   REMARKS
PUEBLO         FAIR      30  20  66 S3        29.96R
LA JUNTA       CLOUDY    32  24  72 N14       29.97R WCI  22
LAMAR          CLOUDY    34  21  59 NE15G25   29.93R WCI  24
SPRINGFIELD      N/A     29  16  58 N8        29.91R WCI  21
$$




USA.gov is the U.S. government's official web portal to all federal, state and local government web resources and services.